Weather History for KHON - October, 2012

Change the Weather History Date:

Saturday, October 6, 2012

  Actual Average Record
Temperature  
Mean Temperature 34 °F 52 °F  
Max Temperature 48 °F 65 °F 91 °F (1961)
Min Temperature 20 °F 39 °F 20 °F (2012)
Degree Days  
Heating Degree Days 31 13  
Month to date heating degree days 103 72  
Since 1 July heating degree days 277 268  
Cooling Degree Days 0 0  
Month to date cooling degree days 0 0  
Year to date cooling degree days 1083 738  
Moisture  
Dew Point 19 °F    
Average Humidity 59    
Maximum Humidity 93    
Minimum Humidity 20    
Precipitation  
Precipitation 0.00 in 0.07 in 1.79 in (1882)
Month to date precipitation T 0.41  
Year to date precipitation 17.27 20.13  
Snow  
Snow 0.00 in 0.10 in T in (1990)
Month to date snowfall 0.0 0.1  
Since 1 July snowfall 0.0 0.1  
Since 1 September snowfall 0.0 0.1  
Snow Depth 0.00 in    
Sea Level Pressure  
Sea Level Pressure 30.38 in    
Wind  
Wind Speed 8 mph (NW)    
Max Wind Speed 17 mph    
Max Gust Speed 23 mph    
Visibility 10 miles    
Events      
T = Trace of Precipitation, MM = Missing Value Source: NWS Daily Summary

Daily Weather History Graph

Daily Weather History Graph

Search for Another Location

Airport or City:

Trip Planner

Search our weather history database for the weather conditions in past years. The results will help you decide how hot, cold, wet, or windy it might be!

Date:

Astronomy

Oct. 06, 2012 Rise Set
Actual Time 7:37 AM CDT 7:03 PM CDT
Civil Twilight 7:08 AM CDT 7:32 PM CDT
Nautical Twilight 6:34 AM CDT 8:06 PM CDT
Astronomical Twilight 6:00 AM CDT 8:39 PM CDT
Moon 11:10 PM CDT (10/6) 1:43 PM CDT (10/6)
Length of Visible Light 12h 24m
Length of Day
11h 26m
Waning Gibbous, 65% of the Moon is Illuminated
Oct 6
Waning Gibbous
Oct 8
Last Quarter
Oct 15
New
Oct 21
First Quarter
Oct 29
Full

Hourly Weather History & Observations

Time (CDT) Temp. Windchill Dew Point Humidity Pressure Visibility Wind Dir Wind Speed Gust Speed Precip Events Conditions
12:55 AM 23.0 °F 13.1 °F 17.1 °F 78% 30.38 in 10.0 mi WNW 9.2 mph - N/A   Clear
1:55 AM 21.9 °F 12.5 °F 16.0 °F 78% 30.37 in 10.0 mi WNW 8.1 mph - N/A   Clear
2:55 AM 19.9 °F 12.1 °F 15.1 °F 81% 30.38 in 10.0 mi WNW 5.8 mph - N/A   Clear
3:55 AM 23.0 °F 13.1 °F 18.0 °F 81% 30.38 in 10.0 mi NW 9.2 mph - N/A   Clear
4:55 AM 23.0 °F 13.1 °F 19.0 °F 85% 30.39 in 10.0 mi NW 9.2 mph - N/A   Clear
5:43 AM 23.0 °F 15.8 °F 19.4 °F 86% 30.36 in 10.0 mi West 5.8 mph - N/A   Mostly Cloudy
5:55 AM 21.0 °F 16.2 °F 18.0 °F 88% 30.41 in 10.0 mi WNW 3.5 mph - N/A   Mostly Cloudy
6:12 AM 19.4 °F 12.8 °F 17.6 °F 93% 30.37 in 10.0 mi WNW 4.6 mph - N/A   Scattered Clouds
6:55 AM 19.9 °F 12.1 °F 18.0 °F 92% 30.43 in 10.0 mi WNW 5.8 mph - N/A   Clear
7:55 AM 24.1 °F 14.4 °F 21.0 °F 88% 30.43 in 10.0 mi WNW 9.2 mph - N/A   Mostly Cloudy
8:55 AM 28.9 °F 18.6 °F 25.0 °F 85% 30.44 in 10.0 mi NW 12.7 mph - N/A   Partly Cloudy
9:55 AM 35.1 °F 25.9 °F 27.0 °F 72% 30.43 in 10.0 mi NW 13.8 mph - N/A   Scattered Clouds
10:55 AM 39.9 °F 33.4 °F 28.0 °F 63% 30.44 in 10.0 mi North 10.4 mph - N/A   Scattered Clouds
11:07 AM 41.0 °F 33.5 °F 26.6 °F 57% 30.39 in 10.0 mi North 13.8 mph 21.9 mph N/A   Mostly Cloudy
11:55 AM 43.0 °F 35.4 °F 26.1 °F 51% 30.43 in 10.0 mi NNW 16.1 mph 21.9 mph N/A   Mostly Cloudy
12:02 PM 42.8 °F 34.8 °F 24.8 °F 49% 30.38 in 10.0 mi North 17.3 mph 21.9 mph N/A   Scattered Clouds
12:55 PM 44.1 °F 38.1 °F 24.1 °F 45% 30.42 in 10.0 mi NNW 11.5 mph 20.7 mph N/A   Partly Cloudy
1:55 PM 45.0 °F 39.7 °F 19.9 °F 37% 30.40 in 10.0 mi NNW 10.4 mph 19.6 mph N/A   Clear
2:55 PM 45.0 °F 39.3 °F 19.0 °F 36% 30.38 in 10.0 mi NNE 11.5 mph 17.3 mph N/A   Clear
3:55 PM 46.9 °F - 19.0 °F 33% 30.36 in 10.0 mi NNW 13.8 mph 18.4 mph N/A   Scattered Clouds
4:55 PM 48.0 °F - 17.1 °F 29% 30.34 in 10.0 mi NNW 10.4 mph - N/A   Mostly Cloudy
5:55 PM 46.0 °F 41.4 °F 14.0 °F 28% 30.34 in 10.0 mi North 9.2 mph - N/A   Clear
6:55 PM 39.9 °F 36.7 °F 12.9 °F 33% 30.34 in 10.0 mi North 4.6 mph - N/A   Clear
7:55 PM 37.0 °F - 12.9 °F 37% 30.34 in 10.0 mi Calm Calm - N/A   Clear
8:55 PM 33.1 °F - 15.1 °F 48% 30.34 in 10.0 mi Calm Calm - N/A   Clear
9:55 PM 30.9 °F 25.2 °F 14.0 °F 50% 30.33 in 10.0 mi SW 5.8 mph - N/A   Clear
10:55 PM 30.0 °F 24.1 °F 15.1 °F 54% 30.32 in 10.0 mi SW 5.8 mph - N/A   Clear
11:55 PM 26.1 °F - 15.1 °F 63% 30.30 in 10.0 mi Calm Calm - N/A   Clear